Muskegon, MI

10:23 PM EST on December 11, 2019 (GMT -0500)
Muskegon County

Weather History for KMKG - November, 2019

Change the Weather History Date:

Thursday, November 21, 2019

  Actual Average Record
Temperature  
Mean Temperature 46 °F 38 °F  
Max Temperature 51 °F 44 °F 69 °F (1913)
Min Temperature 39 °F 32 °F 18 °F (2014)
Degree Days  
Heating Degree Days 20 27  
Month to date heating degree days 622 486  
Since 1 July heating degree days 1128 1109  
Cooling Degree Days 0 0  
Month to date cooling degree days 0 0  
Year to date cooling degree days 640 566  
Moisture  
Dew Point 41 °F    
Average Humidity 83    
Maximum Humidity 90    
Minimum Humidity 65    
Precipitation  
Precipitation 0.59 in 0.11 in 1.10 in (1906)
Month to date precipitation 2.09 2.39  
Year to date precipitation 42.91 29.97  
Snow  
Snow 0.00 in 0.30 in 4.70 in (1971)
Month to date snowfall 10.9 2.8  
Since 1 July snowfall 10.9 3.0  
Since 1 September snowfall 10.9 3.0  
Snow Depth 0.00 in    
Sea Level Pressure  
Sea Level Pressure 29.77 in    
Wind  
Wind Speed 15 mph ()    
Max Wind Speed 30 mph    
Max Gust Speed 46 mph    
Visibility 6.1 miles    
Events Rain    
T = Trace of Precipitation, MM = Missing Value Source: Averaged Metar Reports

Daily Weather History Graph

Daily Weather History Graph

Search for Another Location

Airport or City:

Astronomy

Nov. 21, 2019 Rise Set
Actual Time 7:45 AM EST 5:16 PM EST
Civil Twilight 7:13 AM EST 5:47 PM EST
Nautical Twilight 6:39 AM EST 6:22 PM EST
Astronomical Twilight 6:05 AM EST 6:55 PM EST
Moon 1:27 AM EST (11/21) 2:55 PM EST (11/21)
Length of Visible Light 10h 33m
Length of Day
9h 31m
Waning Crescent, 30% of the Moon is Illuminated
Nov 21
Waning Crescent
Nov 26
New
Dec 4
First Quarter
Dec 12
Full
Dec 18
Last Quarter

Hourly Weather History & Observations

Time (EST) Temp. Windchill Dew Point Humidity Pressure Visibility Wind Dir Wind Speed Gust Speed Precip Events Conditions
12:55 AM 41.0 °F 36.4 °F 34.0 °F 76% 30.10 in 9.0 mi SE 6.9 mph - N/A   Scattered Clouds
1:55 AM 41.0 °F 35.2 °F 34.0 °F 76% 30.07 in 9.0 mi SE 9.2 mph - N/A   Overcast
2:55 AM 41.0 °F 34.7 °F 35.1 °F 79% 30.04 in 8.0 mi SE 10.4 mph - N/A   Mostly Cloudy
3:55 AM 41.0 °F 33.9 °F 35.1 °F 79% 30.01 in 8.0 mi SE 12.7 mph - N/A   Overcast
4:55 AM 42.1 °F 37.1 °F 36.0 °F 79% 29.97 in 9.0 mi SSE 8.1 mph - N/A   Mostly Cloudy
7:55 AM 44.1 °F 37.4 °F 39.0 °F 82% 29.86 in 6.0 mi SE 13.8 mph 20.7 mph 0.07 in Rain Light Rain
8:30 AM 46.0 °F 38.8 °F 39.9 °F 79% 29.83 in 2.0 mi SSE 18.4 mph 28.8 mph 0.05 in Rain Rain
8:43 AM 46.0 °F 38.8 °F 41.0 °F 83% 29.82 in 2.0 mi SSE 18.4 mph 31.1 mph 0.11 in Rain Rain
8:55 AM 46.0 °F 38.5 °F 41.0 °F 83% 29.83 in 2.0 mi SSE 19.6 mph 31.1 mph 0.16 in Rain Rain
9:55 AM 46.9 °F - 43.0 °F 86% 29.76 in 2.0 mi South 21.9 mph 38.0 mph 0.09 in Rain Light Rain
10:07 AM 46.9 °F - 43.0 °F 86% 29.74 in 2.0 mi South 23.0 mph 34.5 mph 0.01 in Rain Light Rain
10:42 AM 48.0 °F - 44.1 °F 86% 29.72 in 10.0 mi South 25.3 mph 44.9 mph 0.08 in Rain Light Rain
10:55 AM 48.0 °F - 44.1 °F 86% 29.72 in 10.0 mi South 19.6 mph 39.1 mph 0.08 in Rain Light Rain
11:55 AM 48.0 °F - 44.1 °F 86% 29.67 in 7.0 mi SSW 21.9 mph 39.1 mph 0.02 in Rain Light Rain
12:07 PM 48.0 °F - 45.0 °F 89% 29.65 in 6.0 mi South 24.2 mph 43.7 mph 0.01 in Rain Light Rain
12:42 PM 48.0 °F - 45.0 °F 89% 29.62 in 1.5 mi South 23.0 mph 35.7 mph 0.02 in Rain Rain
12:55 PM 48.0 °F - 45.0 °F 89% 29.63 in 1.5 mi South 21.9 mph 39.1 mph 0.04 in Rain Light Rain
1:29 PM 48.9 °F - 46.0 °F 90% 29.59 in 1.5 mi SSW 24.2 mph 39.1 mph 0.05 in   Overcast
1:55 PM 48.9 °F - 46.0 °F 90% 29.60 in 1.5 mi South 25.3 mph 39.1 mph 0.05 in   Overcast
2:55 PM 50.0 °F - 46.9 °F 89% 29.58 in 1.5 mi SSW 21.9 mph 35.7 mph 0.01 in   Light Drizzle
3:55 PM 51.1 °F - 48.0 °F 89% 29.59 in 1.0 mi SSW 26.5 mph 38.0 mph 0.04 in   Light Drizzle
4:30 PM 50.0 °F - 46.9 °F 89% 29.59 in 2.5 mi SW 21.9 mph 32.2 mph 0.01 in   Light Drizzle
4:46 PM 50.0 °F - 46.9 °F 89% 29.61 in 2.5 mi WSW 20.7 mph 38.0 mph 0.01 in   Light Drizzle
4:55 PM 50.0 °F - 46.9 °F 89% 29.62 in 2.5 mi WSW 23.0 mph 35.7 mph 0.01 in   Light Drizzle
5:17 PM 48.0 °F - 45.0 °F 89% 29.64 in 10.0 mi WNW 21.9 mph 36.8 mph 0.00 in   Overcast
5:55 PM 46.0 °F 38.0 °F 42.1 °F 86% 29.71 in 8.0 mi WNW 21.9 mph 36.8 mph 0.00 in   Overcast
6:17 PM 46.0 °F 39.0 °F 41.0 °F 83% 29.73 in 10.0 mi WNW 17.3 mph 34.5 mph N/A   Overcast
6:55 PM 45.0 °F 37.6 °F 39.9 °F 82% 29.78 in 10.0 mi WNW 17.3 mph 29.9 mph N/A   Overcast
7:09 PM 45.0 °F 37.1 °F 39.0 °F 80% 29.77 in 10.0 mi WNW 19.6 mph 31.1 mph N/A   Overcast
7:23 PM 44.1 °F 36.8 °F 37.9 °F 79% 29.78 in 7.0 mi NW 16.1 mph 28.8 mph 0.00 in Rain Light Rain
7:48 PM 43.0 °F 36.0 °F 37.0 °F 80% 29.79 in 10.0 mi NW 13.8 mph 32.2 mph 0.00 in   Overcast
7:55 PM 43.0 °F 36.4 °F 37.0 °F 80% 29.80 in 10.0 mi NW 12.7 mph 25.3 mph 0.00 in   Overcast
8:55 PM 42.1 °F 34.9 °F 33.1 °F 70% 29.85 in 10.0 mi NW 13.8 mph 24.2 mph N/A   Overcast
9:55 PM 42.1 °F 35.2 °F 32.0 °F 67% 29.88 in 10.0 mi WNW 12.7 mph 27.6 mph N/A   Overcast
11:55 PM 39.9 °F 30.8 °F 30.0 °F 68% 29.93 in 10.0 mi NW 18.4 mph 32.2 mph N/A   Overcast